When you browse on this site, cookies collect data to enhance your experience and personalize the content and advertising you see.
Visit our Privacy Policy to learn more. By continuing to use the site, you agree to this use of cookies and data.
  • En España
  • Lista de países
  • Para 7 días
  • Temperatura del agua
  • Mapa Satelital
  • El tiempo en el mapa
  • Informadores
  • user-avatar
    Iniciar sesión

    Tiempo cada hora Bhubaneswar

    Hoy, 18 Febrero, Lunes

    Tiempo Temperatura Precipitaciones Viento Presión Humedad
    00:00 +24°C° 0 mm 1 mps 756 mmHg 66%
    01:00 +24°C° 0 mm 1 mps 756 mmHg 63%
    02:00 +23°C° 0 mm 1 mps 755 mmHg 59%
    03:00 +23°C° 0 mm 2 mps 755 mmHg 56%
    04:00 +21°C° 0 mm 2 mps 755 mmHg 54%
    05:00 +22°C° 0 mm 1 mps 755 mmHg 52%
    06:00 +20°C° 0 mm 0 mps 755 mmHg 69%
    07:00 +24°C° 0 mm 1 mps 756 mmHg 61%
    08:00 +26°C° 0 mm 1 mps 756 mmHg 53%
    09:00 +28°C° 0 mm 1 mps 757 mmHg 45%
    10:00 +30°C° 0 mm 1 mps 757 mmHg 39%
    11:00 +31°C° 0 mm 2 mps 757 mmHg 34%
    12:00 +34°C° 0 mm 1 mps 757 mmHg 26%
    13:00 +35°C° 0 mm 1 mps 757 mmHg 25%
    14:00 +36°C° 0 mm 2 mps 756 mmHg 24%
    15:00 +36°C° 0 mm 2 mps 755 mmHg 23%
    16:00 +34°C° 0 mm 3 mps 755 mmHg 32%
    17:00 +32°C° 0 mm 4 mps 755 mmHg 41%
    18:00 +30°C° 0 mm 4 mps 755 mmHg 38%
    19:00 +28°C° 0 mm 3 mps 755 mmHg 49%
    20:00 +26°C° 0 mm 2 mps 756 mmHg 59%
    21:00 +25°C° 0 mm 2 mps 756 mmHg 70%
    22:00 +24°C° 0 mm 2 mps 756 mmHg 73%
    23:00 +24°C° 0 mm 2 mps 756 mmHg 77%

    Mañana, 19 Febrero, Martes

    Tiempo Temperatura Precipitaciones Viento Presión Humedad
    00:00 +24°C° 0 mm 1 mps 756 mmHg 80%
    01:00 +24°C° 0 mm 1 mps 756 mmHg 84%
    02:00 +24°C° 0 mm 1 mps 756 mmHg 88%
    03:00 +24°C° 0 mm 1 mps 756 mmHg 93%
    04:00 +23°C° 0 mm 1 mps 756 mmHg 94%
    05:00 +23°C° 0 mm 1 mps 756 mmHg 95%
    06:00 +21°C° 0 mm 0 mps 756 mmHg 96%
    07:00 +23°C° 0 mm 0 mps 757 mmHg 90%
    08:00 +24°C° 0 mm 0 mps 757 mmHg 84%
    09:00 +25°C° 0 mm 0 mps 758 mmHg 78%
    10:00 +30°C° 0 mm 1 mps 758 mmHg 66%
    11:00 +32°C° 0 mm 1 mps 758 mmHg 54%
    12:00 +35°C° 0 mm 2 mps 758 mmHg 41%
    13:00 +35°C° 0.1 mm 2 mps 758 mmHg 39%
    14:00 +36°C° 0.1 mm 2 mps 757 mmHg 36%
    15:00 +37°C° 0.1 mm 2 mps 757 mmHg 33%
    16:00 +35°C° 0 mm 3 mps 757 mmHg 43%
    17:00 +33°C° 0 mm 4 mps 757 mmHg 52%
    18:00 +30°C° 0 mm 6 mps 757 mmHg 62%
    19:00 +29°C° 0.1 mm 5 mps 757 mmHg 69%
    20:00 +28°C° 0.1 mm 4 mps 758 mmHg 77%
    21:00 +26°C° 0.1 mm 3 mps 759 mmHg 84%
    22:00 +26°C° 0 mm 3 mps 759 mmHg 87%
    23:00 +26°C° 0 mm 3 mps 759 mmHg 89%

    Pasado mañana, 20 Febrero, Miércoles

    Tiempo Temperatura Precipitaciones Viento Presión Humedad
    00:00 +25°C° 0 mm 3 mps 759 mmHg 91%
    01:00 +25°C° 0 mm 2 mps 759 mmHg 93%
    02:00 +25°C° 0 mm 2 mps 759 mmHg 95%
    03:00 +24°C° 0 mm 2 mps 758 mmHg 96%
    04:00 +24°C° 0 mm 2 mps 758 mmHg 96%
    05:00 +24°C° 0 mm 1 mps 758 mmHg 97%
    06:00 +24°C° 0 mm 1 mps 758 mmHg 97%
    07:00 +25°C° 0 mm 2 mps 759 mmHg 88%
    08:00 +27°C° 0 mm 2 mps 760 mmHg 80%
    09:00 +29°C° 0 mm 3 mps 760 mmHg 72%
    10:00 +31°C° 0 mm 3 mps 760 mmHg 61%
    11:00 +34°C° 0 mm 3 mps 760 mmHg 49%
    12:00 +36°C° 0 mm 3 mps 760 mmHg 38%
    13:00 +36°C° 0 mm 3 mps 759 mmHg 35%
    14:00 +37°C° 0 mm 3 mps 758 mmHg 32%
    15:00 +38°C° 0 mm 3 mps 758 mmHg 29%
    16:00 +36°C° 0 mm 4 mps 758 mmHg 34%
    17:00 +34°C° 0 mm 4 mps 758 mmHg 40%
    18:00 +32°C° 0 mm 5 mps 758 mmHg 46%
    19:00 +30°C° 0 mm 4 mps 759 mmHg 57%
    20:00 +28°C° 0 mm 3 mps 759 mmHg 68%
    21:00 +26°C° 0 mm 2 mps 760 mmHg 80%
    22:00 +26°C° 0 mm 2 mps 760 mmHg 83%
    23:00 +25°C° 0 mm 2 mps 761 mmHg 87%

    21 Febrero, Jueves

    Tiempo Temperatura Precipitaciones Viento Presión Humedad
    00:00 +25°C° 0 mm 2 mps 761 mmHg 91%
    01:00 +24°C° 0 mm 2 mps 760 mmHg 92%
    02:00 +24°C° 0 mm 2 mps 760 mmHg 94%
    03:00 +24°C° 0 mm 1 mps 760 mmHg 95%
    04:00 +24°C° 0 mm 1 mps 760 mmHg 95%
    05:00 +23°C° 0 mm 1 mps 760 mmHg 95%
    06:00 +23°C° 0 mm 1 mps 760 mmHg 95%
    07:00 +25°C° 0 mm 1 mps 760 mmHg 84%
    08:00 +27°C° 0 mm 1 mps 761 mmHg 74%
    09:00 +29°C° 0 mm 1 mps 762 mmHg 64%
    10:00 +31°C° 0 mm 1 mps 761 mmHg 51%
    11:00 +34°C° 0 mm 2 mps 761 mmHg 39%
    12:00 +37°C° 0 mm 2 mps 761 mmHg 27%
    13:00 +38°C° 0 mm 2 mps 760 mmHg 25%
    14:00 +38°C° 0 mm 2 mps 759 mmHg 24%
    15:00 +39°C° 0 mm 2 mps 758 mmHg 22%
    16:00 +37°C° 0 mm 3 mps 758 mmHg 25%
    17:00 +35°C° 0 mm 4 mps 757 mmHg 29%
    18:00 +33°C° 0 mm 5 mps 757 mmHg 32%
    19:00 +32°C° 0 mm 4 mps 758 mmHg 40%
    20:00 +29°C° 0 mm 3 mps 758 mmHg 47%
    21:00 +27°C° 0 mm 2 mps 759 mmHg 55%
    22:00 +26°C° 0 mm 2 mps 759 mmHg 58%
    23:00 +26°C° 0 mm 2 mps 759 mmHg 61%

    22 Febrero, Viernes

    Tiempo Temperatura Precipitaciones Viento Presión Humedad
    00:00 +26°C° 0 mm 2 mps 759 mmHg 64%
    01:00 +25°C° 0 mm 2 mps 758 mmHg 64%
    02:00 +25°C° 0 mm 2 mps 757 mmHg 64%
    03:00 +25°C° 0 mm 2 mps 757 mmHg 64%
    04:00 +25°C° 0 mm 2 mps 757 mmHg 63%
    05:00 +24°C° 0 mm 1 mps 757 mmHg 62%
    06:00 +24°C° 0 mm 1 mps 757 mmHg 61%
    07:00 +26°C° 0 mm 1 mps 758 mmHg 53%
    08:00 +28°C° 0 mm 2 mps 758 mmHg 46%
    09:00 +31°C° 0 mm 2 mps 759 mmHg 38%
    10:00 +34°C° 0 mm 2 mps 759 mmHg 33%
    11:00 +36°C° 0 mm 2 mps 759 mmHg 27%
    12:00 +39°C° 0 mm 2 mps 758 mmHg 22%
    13:00 +40°C° 0 mm 2 mps 757 mmHg 21%
    14:00 +40°C° 0 mm 2 mps 756 mmHg 19%
    15:00 +41°C° 0 mm 2 mps 756 mmHg 18%
    16:00 +39°C° 0 mm 3 mps 755 mmHg 23%
    17:00 +37°C° 0 mm 3 mps 755 mmHg 27%
    18:00 +35°C° 0 mm 4 mps 755 mmHg 32%
    19:00 +33°C° 0 mm 4 mps 756 mmHg 40%
    20:00 +30°C° 0 mm 4 mps 756 mmHg 49%
    21:00 +28°C° 0 mm 3 mps 757 mmHg 57%
    22:00 +28°C° 0 mm 3 mps 757 mmHg 58%
    23:00 +27°C° 0 mm 3 mps 757 mmHg 59%

    23 Febrero, Sábado

    Tiempo Temperatura Precipitaciones Viento Presión Humedad
    00:00 +27°C° 0 mm 2 mps 757 mmHg 60%
    01:00 +27°C° 0 mm 2 mps 757 mmHg 62%
    02:00 +26°C° 0 mm 1 mps 756 mmHg 63%
    03:00 +26°C° 0 mm 1 mps 756 mmHg 64%
    04:00 +26°C° 0 mm 1 mps 756 mmHg 64%
    05:00 +25°C° 0 mm 2 mps 756 mmHg 65%
    06:00 +25°C° 0 mm 2 mps 756 mmHg 65%
    07:00 +28°C° 0 mm 2 mps 757 mmHg 57%
    08:00 +30°C° 0 mm 3 mps 757 mmHg 48%
    09:00 +33°C° 0 mm 3 mps 758 mmHg 39%
    10:00 +36°C° 0 mm 3 mps 757 mmHg 33%
    11:00 +38°C° 0 mm 3 mps 757 mmHg 27%
    12:00 +40°C° 0 mm 3 mps 757 mmHg 20%
    13:00 +42°C° 0 mm 3 mps 756 mmHg 20%
    14:00 +42°C° 0 mm 3 mps 755 mmHg 19%
    15:00 +43°C° 0 mm 3 mps 754 mmHg 18%
    16:00 +41°C° 0 mm 4 mps 754 mmHg 22%
    17:00 +38°C° 0 mm 4 mps 754 mmHg 26%
    18:00 +36°C° 0 mm 5 mps 754 mmHg 30%
    19:00 +34°C° 0 mm 4 mps 754 mmHg 37%
    20:00 +31°C° 0 mm 3 mps 755 mmHg 44%
    21:00 +29°C° 0 mm 3 mps 756 mmHg 51%
    22:00 +28°C° 0 mm 3 mps 756 mmHg 54%
    23:00 +28°C° 0 mm 3 mps 756 mmHg 56%
    Mostrar más